Regional Weather Roundup
Issued by NWS Grand Forks, ND

Home | Current Version | Previous Version | Graphics & Text | Print | Product List | Glossary On
Versions: 1 2 3 4 5 6 7 8 9 10 11 12 13 14 15 16 17 18 19 20 21 22 23 24 25 26 27 28 29 30 31 32 33 34 35 36 37 38 39 40 41 42 43 44 45 46 47 48 49 50
000
ASUS43 KFGF 031031
RWRFGF
PRAIRIE TO PINES  WEATHER ROUNDUP
NATIONAL WEATHER SERVICE EASTERN NORTH DAKOTA/GRAND FORKS ND
500 AM CDT MON AUG 03 2015

 **SATELLITE DATA USED TO AUGMENT SKY COVER AT AUTOMATED STATIONS**
 *****  WEATHER ACROSS EASTERN NORTH DAKOTA  *****

CITY           SKY/WX    TMP DP  RH WIND       PRES   REMARKS
GRAND FORKS    CLEAR     49  47  93 W8        29.89R
GRAND FRKS AFB CLEAR     50  47  89 W8        29.90R
DEVILS LAKE    CLEAR     55  46  71 W8        29.94R
FARGO          CLEAR     52  47  83 W3        29.91R
WAHPETON ARPT  SUNNY     46  43  87 CALM      29.93R
$$

 ***** WEATHER ACROSS CENTRAL AND WESTERN NORTH DAKOTA  *****

CITY           SKY/WX    TMP DP  RH WIND       PRES   REMARKS
BISMARCK       CLEAR     51  50  96 CALM      30.00S
MINOT          CLEAR     54  48  80 W8        29.99S
JAMESTOWN      CLEAR     54  50  86 NW3       29.95S
MINOT AFB      CLEAR     51  51  99 W8        29.99R
GARRISON         N/A     52  49  89 NW7       30.00S
WILLISTON      CLEAR     55  49  80 CALM      30.03S
DICKINSON      CLEAR     52  47  83 W5        30.03S
HETTINGER      CLEAR     47  44  90 W5        30.05R
$$

 *****  OTHER AIRPORT OBSERVATIONS IN OUR AREA  *****

CITY           SKY/WX    TMP DP  RH WIND       PRES   REMARKS
WALHALLA       FAIR      52  50  93 MISG      29.91R
GRAFTON AIRPOR FAIR      54  50  87 W8        29.91R
VALLEY CITY AR FAIR      55  54  94 NW10      29.95R
CANDO          FAIR      50  48  93 NW9       29.95S
CAVALIER APRT  FAIR      50  46  87 W3        29.90R
GWINNER        FAIR      57  50  77 W7        29.95R
SHEYENNE NWR     N/A     51  49  91 W3        29.95
ROLLA          FAIR      52  48  87 NW9       29.97R
 ***** THE ABOVE OBSERVATIONS ARE NON NWS ARE NOT QUALITY
       CONTROLLED AND MAY MIS-REPORT RAIN FOR SNOW...
$$

  *****  WEATHER ACROSS NORTHERN MINNESOTA  *****

CITY           SKY/WX    TMP DP  RH WIND       PRES   REMARKS
FLAG ISLAND    CLOUDY    57  54  88 NW16      29.81R
WARROAD        MOCLDY    54  50  87 W8        29.85R
ROSEAU         CLEAR     54  48  82 W8        29.85S
HALLOCK        CLEAR     48  46  93 W3        29.88R
THF RVR FALLS  CLEAR     52  46  82 NW6       29.89R
BAUDETTE       CLOUDY    57  50  77 W8        29.82R
WASKISH        MOCLDY    57  52  82 NW13      29.84R
CROOKSTON      CLEAR     48  46  93 NW3       29.91R
STEPHEN NDAWN    N/A     52  48  87 W5          N/A
GREENBUSH NDAW   N/A     50  48  93 W3          N/A
$$
  *****  WEATHER ACROSS CENTRAL AND WEST MINNESOTA  *****

CITY           SKY/WX    TMP DP  RH WIND       PRES   REMARKS
FOSSTON        CLEAR     45  41  87 CALM      29.90R
BEMIDJI        CLEAR     53  46  77 W8        29.87R
PARK RAPIDS    CLEAR     50  47  89 NW6       29.89R
ELBOW LAKE     FAIR      53  50  89 NW7       29.92R
WADENA         CLEAR     52  48  87 W5        29.89S
DETROIT LAKES  CLEAR     54  50  87 W6        29.92S
MOORHEAD       CLEAR     54  48  82 CALM      29.92R
FERGUS FALLS   CLEAR     52  50  93 CALM      29.92R
MORRIS MN      CLEAR     52  48  87 NW6       29.92R
STAPLES        CLEAR     48  46  93 W6        29.89S
$$
  *****  WEATHER ELSEWHERE ACROSS MINNESOTA  *****

CITY           SKY/WX    TMP DP  RH WIND       PRES   REMARKS
DULUTH         CLOUDY    56  46  69 W10       29.79R
INTRNTL FALLS  CLOUDY    57  50  77 W7        29.77R
ELY            CLOUDY    55  48  76 W7        29.75S
CLOQUET        CLOUDY    55  46  71 W9        29.81R
WHEATON        CLEAR     54  50  87 CALM      29.95R
BRAINERD       CLEAR     48  47  96 S3        29.87R
HIBBING        CLOUDY    58  46  64 W9        29.79S
ALEXANDRIA     CLEAR     57  51  80 W6        29.92S
SAINT CLOUD    PTCLDY    54  50  86 NW5       29.88R
MINNEAPOLIS    CLEAR     62  53  72 CALM      29.87S
$$

  *****  WEATHER ACROSS SOUTH DAKOTA  *****

CITY           SKY/WX    TMP DP  RH WIND       PRES   REMARKS
SIOUX FALLS    CLEAR     59  56  89 CALM      29.96R
BROOKINGS        N/A     52  48  87 CALM      29.98S VSB 3/4
WATERTOWN      CLEAR     57  53  86 CALM      29.95S
HURON          CLEAR     58  57  97 CALM      29.95S
SISSETON         N/A     54  49  83 N3        29.92S
ABERDEEN       CLEAR     54  50  86 NW3       29.95S
MITCHELL       CLEAR     60  58  92 NW3       29.97R
PIERRE         CLEAR     57  53  86 CALM      29.97R
MOBRIDGE       CLEAR     58  58 100 N6        29.97R
RAPID CITY     CLEAR     57  52  83 CALM      30.03S
$$

  *****  SOME WEATHER IN NEARBY STATES *****

CITY           SKY/WX    TMP DP  RH WIND       PRES   REMARKS
GLASGOW MT     CLEAR     59  48  67 E10       30.02S
GREAT FALLS MT CLEAR     58  45  62 CALM      29.94S
CHEYENNE WY    MOCLDY    59  50  72 W6        30.13R
SCOTTSBLUFF NE MOCLDY    63  56  78 CALM      30.00R
OMAHA NE       PTCLDY    68  63  84 N6        29.94R
DES MOINES IA  PTCLDY    70  57  63 N9        29.90F
DAVENPORT IA   CLEAR     63  61  93 W6        29.85R
CHICAGO IL     PTCLDY    67  65  93 W7        29.77R
EAU CLAIRE WI  CLEAR     56  49  77 W6        29.83S
LA CROSSE WI   CLEAR     60  53  77 CALM      29.84S
$$

  *****  SOME NATIONAL WEATHER *****

CITY           SKY/WX    TMP DP  RH WIND       PRES   REMARKS
LA GUARDIA NY  PTCLDY    76  60  57 SW9       29.84S
RALEIGH NC     MOCLDY    70  68  93 CALM      29.92S
ATLANTA GA     PTCLDY    75  67  76 NE7       29.90S
NEW ORLEANS LA PTCLDY    78  73  84 W6        29.87R
OKLAHOMA CITY  MOCLDY    71  66  84 S5        29.92R
ALBUQUERQUE NM PTCLDY    65  60  84 W13       30.14R
SALT LAKE CITY LGT RAIN  67  58  72 S10       30.04R
LOS ANGELES CA CLEAR     68  63  84 CALM      29.87S
BOISE ID       MOCLDY    79  50  36 N9        29.85R
SEATTLE WA     CLOUDY    65  53  65 S6        29.90R
$$

*** WEATHER ACROSS MANITOBA...SASKATCHEWAN AND ONTARIO ***
                ***ONTARIO***

CITY           SKY/WX    TMP DP  RH WIND       PRES   REMARKS
GERALDTON      LGT RAIN  54  52  94 W5        29.60R
THUNDER BAY    MOCLDY    57  52  82 W6        29.68R
SIOUX LOOKOUT  CLOUDY    54  52  94 NW7       29.71R
TORONTO        MOCLDY    64  61  88 W14G22    29.68R
BIG TROUT LK   CLOUDY    45  45 100 N9G18     29.64R FOG
PICKLE LAKE    NOT AVBL
DRYDEN         LGT RAIN  54  52  94 W8        29.75R
KENORA         MOCLDY    55  50  82 NW8       29.79R
$$
                *** MANITOBA***

CITY           SKY/WX    TMP DP  RH WIND       PRES   REMARKS
BRANDON        CLEAR     46  45  93 W9        29.95R
DAUPHIN        CLEAR     48  46  93 W9        29.94R
ISLAND LAKE    LGT RAIN  52  52 100 N8        29.74R
PILOT MOUND      N/A     46  45  93 NW6         N/A
THE PAS        PTCLDY    52  50  93 CALM      29.90S
THOMPSON       LGT RAIN  52  48  87 NW6       29.83
WINNIPEG       PTCLDY    48  46  93 W7        29.88R
LYNN LAKE      CLOUDY    48  46  93 VRB2      29.91R
CHURCHILL      CLOUDY    45  43  93 N10       29.83R
GILLAM         CLOUDY    46  45  93 N14       29.79
$$
                ***SASKATCHEWAN***

CITY           SKY/WX    TMP DP  RH WIND       PRES   REMARKS
ESTEVAN        CLEAR     46  46 100 SW5       30.03
KINDERSLEY     PTCLDY    54  48  82 SE8       30.00S
LLOYDMINSTER   CLEAR     55  48  76 S7        29.98S
PRINCE ALBERT  CLEAR     46  45  93 W3        29.98R
REGINA         CLEAR     50  48  93 W2        30.02S
YORKTON        CLEAR     50  48  93 W5        29.97S
N. BATTLEFORD  CLEAR     50  48  93 SE5       30.01S
LA RONGE       CLEAR     43  39  87 CALM      29.95
SASKATOON      PTCLDY    52  52 100 VRB2      30.02S
SWIFT CURRENT  CLEAR     54  50  87 S9        30.02S
$$
NOTE: THESE ARE AUTOMATED STATIONS WITH LIMITED QUALITY CONTROL
      "FAIR" INDICATES FEW OR NO CLOUDS BELOW 12,000 FEET WITH NO
      SIGNIFICANT WEATHER AND/OR OBSTRUCTIONS TO VISIBILITY.
      SKY/WX - SKY CONDITION AND SIGNIFICANT WEATHER.
      TMP - AIR TEMPERATURE.    DP   - DEWPOINT TEMPERATURE.
      RH  - RELATIVE HUMIDITY.  PRES - PRESSURE.
      HX  - HEAT INDEX.         WCI  - WIND CHILL INDEX.
$


USA.gov is the U.S. government's official web portal to all federal, state and local government web resources and services.